Location: Alafon
(8.4500°N, 4.2333°E)
Time: 00:40:56
(UTC+00:00)

Cosmos 2285 Rocket - Pass Details

Date: 05 July 2020
Orbit: 971 x 998 km, 74.0° (Epoch: 06 August)

Event Time Altitude Azimuth Distance (km) Brightness Sun altitude
Rises 20:26:55 0° 340° (NNW) 3,652 7.7 -31.8°
Reaches altitude 10° 20:29:29 10° 337° (NNW) 2,707 6.9 -32.3°
Enters shadow 20:35:20 59° 272° (W) 1,108 4.3 -33.5°
